Location: Bieujac
(44.5398°N, 0.1549°W)
Time: 03:54:17
(UTC+00:00)

BREEZE-M DEB (TANK) - Pass Details

Date: 17 November 2019
Orbit: 328 x 16736 km, 49.5° (Epoch: 07 December)

Event Time Altitude Azimuth Distance (km) Brightness Sun altitude
Exits shadow 05:05:32 52° 200° (SSW) 564 2.7 -20.1°
Drops below altitude 10° 05:09:54 10° 130° (SE) 2,497 7.0 -19.4°
Sets 05:14:14 0° 127° (SE) 4,629 8.6 -18.6°
